Probability
0 0 0 0 0 0 0 0 0 0 0 0 0 0 0 0 0 0 0 0 0 0 0 0 0 0 0 0 0 0 0 0 0 0 0 0 0 0 0 0 0 0 0
0 0 0 0 0 0 0 0 0 0 0 0 0 0 0 0 0 0 0 0 0 0 0 0 0 0 0 0 0 0 0 0 0 0 0 0 0 0 0 0 0 0 0
0 0 0 0 0 0 0 0 0 0 0 0 0 0 0 0 0 0 0 0 0 0 0 0 0 0 0 0 0 0 0 0 0 0 0 0 0 0 0 0 0 0 0
0 0 0 0 0 0 0 0 0 0 0 0 0 0 0 0 0 0 0 0 0 0 0 0 0 0 0 0 0 0 0 0 0 0 0 0 0 0 0 0 0 0 0
0 0 0 0 0 0 0 0 0 0 0 0 0 0 0 0 0 0 0 0 0 0 0 0 0 0 0 0 0 0 0 0 0 0 0 0 0 0 0 0 0 0 0
0 0 0 0 0 0 0 0 0 0 0 0 0 0 0 0 0 0 0 0 0 0 0 0 0 0 0 0 0 0 0 0 0 0 0 0 0 0 0 0 0 0 0
0 0 0 0 0 0 0 0 0 0 0 0 0 0 0 0 0 0 0 0 0 0 0 0 0 0 0 0 0 0 0 0 0 0 0 0 0 0 0 0 0 0 0
0 0 0 0 0 0 0 0 0 0 0 0 0 0 0 0 0 0 0 0 0 0 0 0 0 0 0 0 0 0 0 0 0 0 0 0 0 0 0 0 0 0 0
0 0 0 0 0 0 0 0 0 0 0 0 0 0 0 0 0 0 0 0 0 0 0 0 0 0 0 0 0 0 0 0 0 0 0 0 0 0 0 0 0 0 0
0 0 0 0 0 0 0 0 0 0 0 0 0 0 0 0 0 0 0 0 0 0 0 0 0 0 0 0 0 0 0 0 0 0 0 0 0 0 0 0 0 0 0
0 0 0 0 0 0 0 0 0 0 0 0 0 0 0 0 0 0 0 0 0 0 0 0 0 0 0 0 0 0 0 0 0 0 0 0 0 0 0 0 0 0 0
0 0 0 0 0 0 0 0 0 0 0 0 0 0 0 0 0 0 0 0 0 0 0 0 0 0 0 0 0 0 0 0 0 0 0 0 0 0 0 0 0 0 0
0 0 0 0 0 0 0 0 0 0 0 0 0 0 0 0 0 0 0 0 0 0 0 0 0 0 0 0 0 0 0 0 0 0 0 0 0 0 0 0 0 0 0
0 0 0 0 0 0 0 0 0 0 0 0 0 0 0 0 0 0 0 0 0 0 0 0 0 0 0 0 0 0 0 0 0 0 0 0 0 0 0 0 0 0 0
0 0 0 0 0 0 0 0 0 0 0 0 0 0 0 0 0 0 0 0 0 0 0 0 0 0 0 0 0 0 0 0 0 0 0 0 0 0 0 0 0 0 0
0 0 0 0 0 0 0 0 0 0 0 0 0 0 0 0 0 0 0 0 0 0 0 0 0 0 0 0 0 0 0 0 0 0 0 0 0 0 0 0 0 0 0
0 0 0 0 0 0 0 0 0 0 0 0 0 0 0 0 0 0 0 0 0 0 0 0 0 0 0 0 0 0 0 0 0 0 0 0 0 0 0 0 0 0 0
0 0 0 0 0 0 0 0 0 0 0 0 0 0 0 0 0 0 0 0 0 0 0 0 0 0 0 0 0 0 0 0 0 0 0 0 0 0 0 0 0 0 0
0 0 0 0 0 0 0 0 0 0 0 0 0 0 0 0 0 0 0 0 0 0 0 0 0 0 0 0 0 0 0 0 0 0 0 0 0 0 0 0 0 0 0
0 0 0 0 0 0 0 0 0 0 0 0 0 0 0 0 0 0 0 0 0 0 0 0 0 0 0 0 0 0 0 0 0 0 0 0 0 0 0 0 0 0 0
0 0 0 0 0 0 0 0 0 0 0 0 0 0 0 0 0 0 0 0 0 0 0 0 0 0 0 0 0 0 0 0 0 0 0 0 0 0 0 0 0 0 0
0 0 0 0 0 0 0 0 0 0 0 0 0 0 0 0 0 0 0 0 0 0 0 0 0 0 0 0 0 0 0 0 0 0 0 0 0 0 0 0 0 0 0
0 0 0 0 0 0 0 0 0 0 0 0 0 0 0 0 0 0 0 0 0 0 0 0 0 0 0 0 0 0 0 0 0 0 0 0 0 0 0 0 0 0 0
0 0 0 0 0 0 0 0 0 0 0 0 0 0 0 0 0 0 0 0 0 0 0 0 0 0 0 0 0 0 0 0 0 0 0 0 0 0 0 0 0 0 0
0 0 0 0 0 0 0 0 0 0 0 0 0 0 0 0 0 0 0 0 0 0 0 0 0 0 0 0 0 0 0 0 0 0 0 0 0 0 0 0 0 0 0
0 0 0 0 0 0 0 0 0 0 0 0 0 0 0 0 0 0 0 0 0 0 0 0 0 0 0 0 0 0 0 0 0 0 0 0 0 0 0 0 0 0 0
Height
5575 5575 5575 5575 5576 5576 5577 5577 5578 5579 5580 5581 5582 5584 5585 5587 5589 5591 5594 5597 5600 5604 5607 5611 5616 5620 5624 5628 5633 5637 5641 5645 5650 5655 5659 5663 5667 5670 5674 5677 5681 5684 5687
5562 5562 5561 5561 5562 5562 5562 5562 5563 5564 5565 5566 5568 5569 5570 5572 5574 5576 5579 5581 5584 5588 5592 5595 5600 5604 5608 5613 5617 5622 5626 5630 5635 5640 5644 5648 5652 5656 5660 5663 5667 5670 5673
5549 5548 5548 5547 5547 5547 5547 5548 5548 5550 5551 5552 5553 5554 5555 5557 5559 5561 5563 5566 5569 5573 5576 5580 5584 5588 5593 5597 5601 5606 5611 5615 5619 5624 5630 5633 5637 5641 5645 5649 5653 5656 5660
5535 5534 5534 5533 5533 5533 5533 5533 5534 5535 5536 5537 5538 5540 5541 5542 5544 5546 5549 5551 5554 5558 5561 5564 5568 5572 5577 5581 5586 5591 5595 5599 5604 5609 5614 5618 5623 5627 5630 5635 5639 5642 5646
5522 5521 5520 5519 5519 5519 5519 5520 5521 5521 5522 5524 5525 5526 5527 5529 5531 5533 5534 5537 5540 5543 5547 5550 5554 5557 5562 5566 5571 5575 5580 5584 5588 5593 5598 5603 5608 5612 5616 5620 5624 5627 5631
5510 5508 5507 5507 5506 5506 5506 5506 5507 5508 5509 5510 5511 5513 5514 5515 5517 5519 5521 5523 5526 5529 5533 5536 5539 5543 5547 5552 5556 5560 5565 5569 5574 5579 5584 5588 5593 5597 5601 5604 5608 5612 5617
5497 5496 5495 5495 5494 5494 5493 5494 5495 5496 5496 5497 5498 5500 5501 5502 5504 5505 5507 5510 5513 5516 5519 5523 5526 5530 5533 5537 5541 5546 5551 5555 5560 5565 5569 5574 5578 5583 5587 5590 5593 5596 5601
5486 5485 5484 5484 5483 5483 5482 5482 5483 5484 5484 5485 5486 5487 5488 5490 5491 5493 5495 5497 5500 5503 5506 5510 5513 5517 5520 5524 5527 5532 5537 5542 5546 5551 5556 5560 5564 5567 5570 5574 5577 5581 5585
5476 5475 5474 5473 5473 5472 5472 5472 5472 5473 5473 5474 5474 5475 5476 5478 5479 5481 5483 5485 5488 5491 5494 5498 5501 5505 5508 5511 5515 5519 5524 5528 5532 5536 5541 5545 5549 5552 5555 5558 5562 5565 5569
5467 5466 5464 5464 5463 5462 5462 5462 5462 5462 5462 5463 5463 5464 5465 5467 5468 5470 5472 5474 5478 5481 5484 5487 5490 5493 5496 5498 5502 5506 5510 5515 5518 5523 5527 5531 5535 5538 5541 5544 5547 5551 5554
5457 5456 5455 5454 5453 5453 5452 5452 5452 5452 5452 5453 5453 5454 5455 5457 5458 5460 5461 5464 5467 5470 5473 5476 5479 5481 5484 5487 5490 5493 5497 5501 5505 5509 5513 5517 5521 5524 5527 5530 5533 5537 5540
5448 5447 5446 5445 5444 5443 5443 5442 5442 5442 5442 5443 5444 5445 5445 5447 5448 5450 5452 5454 5457 5460 5463 5465 5468 5471 5473 5476 5478 5481 5484 5488 5492 5495 5500 5504 5507 5511 5514 5517 5520 5523 5526
5439 5438 5437 5436 5435 5434 5434 5433 5433 5433 5433 5434 5434 5435 5437 5438 5439 5441 5443 5445 5447 5450 5453 5455 5458 5460 5463 5465 5467 5470 5472 5476 5479 5483 5487 5491 5495 5498 5501 5503 5506 5509 5512
5430 5429 5428 5427 5426 5425 5425 5424 5424 5424 5424 5425 5425 5427 5428 5429 5431 5432 5435 5437 5439 5440 5443 5446 5448 5450 5452 5455 5457 5459 5462 5465 5468 5471 5475 5478 5482 5485 5487 5490 5493 5496 5499
5421 5420 5419 5418 5417 5416 5416 5416 5415 5416 5415 5416 5417 5418 5420 5421 5422 5424 5425 5428 5430 5432 5434 5436 5439 5441 5442 5444 5447 5449 5451 5453 5456 5459 5463 5466 5469 5472 5474 5477 5480 5483 5486
5413 5412 5410 5409 5408 5407 5407 5407 5407 5407 5407 5408 5408 5409 5411 5413 5414 5416 5417 5419 5421 5423 5425 5428 5430 5432 5433 5435 5437 5439 5441 5443 5446 5449 5452 5454 5457 5460 5463 5465 5468 5470 5473
5405 5403 5401 5400 5399 5399 5398 5398 5398 5399 5399 5400 5401 5402 5403 5404 5406 5407 5409 5411 5413 5414 5416 5418 5420 5422 5424 5426 5428 5429 5431 5433 5436 5438 5441 5443 5446 5448 5451 5454 5456 5458 5460
5396 5394 5393 5392 5391 5390 5390 5389 5390 5390 5391 5392 5393 5394 5395 5396 5398 5399 5401 5403 5405 5406 5408 5409 5411 5413 5415 5416 5418 5420 5422 5424 5426 5428 5430 5432 5435 5438 5440 5442 5445 5447 5449
5388 5386 5384 5383 5382 5382 5381 5381 5381 5382 5383 5384 5385 5386 5387 5389 5390 5391 5392 5394 5396 5397 5399 5401 5402 5404 5405 5407 5409 5411 5412 5414 5416 5419 5421 5423 5425 5427 5429 5431 5433 5435 5437
5380 5378 5376 5375 5374 5373 5373 5373 5373 5374 5375 5375 5376 5378 5379 5380 5382 5383 5384 5386 5387 5389 5390 5392 5394 5395 5397 5399 5400 5402 5403 5405 5407 5409 5411 5413 5415 5417 5419 5421 5423 5424 5426
5373 5370 5368 5367 5366 5365 5365 5365 5365 5365 5366 5367 5368 5369 5370 5372 5373 5375 5376 5378 5379 5381 5382 5384 5386 5387 5389 5390 5392 5394 5395 5397 5399 5401 5403 5404 5406 5407 5409 5411 5412 5414 5415
5366 5364 5362 5360 5359 5358 5357 5357 5357 5357 5358 5359 5360 5361 5362 5363 5365 5367 5368 5370 5371 5373 5374 5376 5378 5379 5381 5383 5384 5386 5388 5390 5391 5393 5394 5396 5397 5398 5400 5401 5402 5404 5404
5359 5357 5355 5353 5352 5351 5351 5350 5350 5350 5350 5350 5351 5352 5354 5355 5357 5359 5360 5362 5364 5365 5367 5369 5371 5372 5374 5375 5377 5379 5381 5382 5384 5385 5386 5388 5389 5390 5391 5392 5393 5394 5395
5353 5351 5349 5347 5346 5345 5344 5344 5343 5343 5343 5343 5343 5344 5345 5347 5348 5350 5352 5354 5356 5358 5359 5361 5363 5365 5366 5368 5369 5371 5373 5374 5376 5377 5378 5380 5380 5381 5382 5383 5384 5385 5385
5346 5345 5343 5342 5340 5339 5339 5338 5337 5337 5336 5336 5336 5337 5338 5339 5341 5342 5344 5346 5348 5350 5352 5353 5355 5357 5359 5360 5362 5363 5365 5366 5368 5369 5370 5371 5372 5373 5374 5374 5375 5376 5376
5341 5339 5337 5336 5335 5334 5333 5332 5331 5331 5330 5330 5330 5330 5331 5332 5333 5335 5337 5338 5340 5342 5344 5346 5347 5349 5351 5353 5354 5356 5357 5359 5360 5361 5362 5363 5364 5364 5365 5365 5366 5366 5367
Wind_Speed
46 47 47 47 47 48 48 49 49 50 50 50 51 51 52 53 53 54 55 56 56 56 56 57 56 56 56 56 57 56 55 54 53 53 53 53 53 52 52 52 51 51 50
45 46 47 47 48 48 48 49 49 49 49 50 50 50 50 50 51 52 53 54 54 54 55 56 56 56 57 57 56 56 56 56 55 54 53 53 53 52 52 52 52 51 50
44 46 47 47 48 47 47 48 48 48 48 48 48 49 49 50 50 51 52 52 53 53 53 54 54 55 55 56 56 56 56 56 56 55 55 54 54 53 52 51 52 52 51
43 45 46 46 46 46 46 46 46 47 47 47 47 48 48 48 49 48 49 50 51 51 51 52 52 53 54 54 55 55 56 56 57 57 56 55 54 53 53 53 52 52 52
42 43 43 43 44 44 44 44 44 45 45 45 46 46 46 47 47 46 47 48 48 49 49 50 50 51 52 53 53 54 54 55 55 55 55 55 54 54 54 54 54 53 53
40 41 40 40 41 41 42 42 42 43 43 44 44 45 45 45 45 46 46 46 46 46 47 48 49 50 50 50 51 52 52 52 52 53 54 54 54 53 54 54 54 54 54
37 37 37 37 37 38 39 40 41 41 41 42 43 43 44 44 44 44 45 45 45 45 45 46 47 48 48 49 50 50 50 50 50 51 51 52 52 52 53 54 54 54 54
35 35 35 35 34 35 35 36 37 38 39 40 40 41 41 42 42 41 42 43 43 43 43 44 44 45 46 47 48 49 49 49 49 50 50 51 51 51 51 52 53 53 53
33 33 33 33 33 33 34 34 35 36 36 37 38 39 40 40 41 41 41 41 41 41 41 42 42 43 44 46 47 48 48 48 48 48 49 50 50 50 51 51 52 52 51
32 32 32 32 32 32 32 33 33 33 34 35 36 36 37 37 38 38 39 39 39 39 39 39 40 41 42 43 45 47 47 47 48 48 48 49 49 49 50 50 50 50 50
31 31 31 32 32 32 32 32 32 32 32 33 33 33 34 34 34 35 36 37 37 36 36 37 38 39 39 41 43 45 46 47 48 48 48 47 48 48 48 48 48 49 49
31 31 31 31 31 31 31 31 31 30 31 31 30 30 31 32 32 32 32 34 35 35 35 35 36 37 38 39 41 42 44 45 46 47 47 47 47 47 47 47 47 48 48
31 31 31 31 30 30 30 30 30 29 29 29 29 29 29 30 31 31 31 32 32 33 33 33 34 36 37 37 38 39 42 43 44 44 45 45 45 46 46 47 47 47 47
30 30 30 30 30 30 30 30 30 29 28 28 29 29 28 29 29 30 31 31 31 31 31 32 32 33 34 35 35 37 39 41 43 43 43 43 44 45 45 46 47 47 46
29 29 29 30 29 30 30 29 29 29 28 27 27 28 28 28 28 29 29 29 30 31 31 31 32 32 32 34 35 35 36 38 39 40 41 41 42 42 43 44 45 45 45
29 29 29 29 29 29 29 29 29 28 27 26 26 27 28 28 28 28 28 29 29 30 31 32 31 32 32 32 33 35 36 37 37 38 39 39 40 41 41 42 42 43 43
28 28 28 27 27 27 26 26 26 27 27 26 26 26 27 27 28 28 28 28 29 29 30 30 31 31 31 31 32 33 34 35 36 37 38 39 40 40 40 40 40 41 41
28 28 27 27 27 26 25 25 25 25 26 27 27 27 27 27 27 28 27 27 27 28 29 29 29 30 30 30 31 32 33 33 34 35 36 37 38 38 38 38 39 39 39
28 28 27 27 26 26 25 25 25 25 25 25 26 27 27 27 27 26 26 27 27 26 27 27 28 28 29 29 30 31 32 32 33 33 34 35 35 36 36 37 37 38 38
27 27 27 26 26 26 25 25 25 25 25 25 26 26 27 27 27 27 27 27 26 26 26 26 26 27 28 28 29 29 29 29 29 29 30 31 32 33 34 34 35 35 36
25 25 25 24 24 24 24 24 24 25 25 26 25 25 26 26 26 25 25 25 25 25 26 26 26 26 27 27 28 27 27 27 27 28 28 28 29 31 32 32 32 33 34
23 23 23 22 22 22 22 22 22 23 23 24 25 25 25 25 24 24 24 24 24 24 24 24 25 25 26 26 25 25 25 26 26 27 27 28 28 29 29 30 31 31 31
22 22 21 21 20 20 20 20 20 21 21 22 22 24 25 25 25 25 25 25 25 25 25 25 24 24 25 25 24 24 25 25 25 26 26 27 28 28 28 28 28 28 29
21 21 20 19 18 18 18 18 19 19 20 20 21 22 23 24 25 25 26 26 26 25 25 25 25 25 26 26 26 25 25 25 24 25 25 26 26 26 27 27 28 28 28
20 19 18 18 17 17 17 18 18 18 19 19 20 20 21 22 23 24 25 26 26 26 26 25 25 25 25 26 26 26 25 25 25 25 25 25 26 26 27 27 28 29 29
19 18 17 17 17 16 16 17 17 17 17 18 18 19 20 22 23 24 24 25 25 26 26 26 26 25 25 26 26 26 26 26 26 25 25 25 25 25 26 26 27 28 28
Wind_Direction
269 269 268 267 266 266 266 265 264 262 262 261 261 260 260 259 258 258 257 256 255 255 254 254 253 252 252 252 251 251 251 251 251 250 250 251 251 253 255 255 255 255 255
270 269 268 268 268 268 266 265 263 262 261 261 261 261 260 259 258 258 257 256 255 255 254 254 253 252 252 251 251 250 251 251 251 251 250 251 251 252 254 254 254 254 256
272 270 269 269 268 267 266 264 263 263 262 262 260 260 259 259 258 258 257 256 256 255 254 253 253 252 251 251 250 250 250 251 250 250 250 250 252 252 253 253 254 255 256
274 273 271 270 268 267 266 264 263 263 262 262 261 261 260 259 259 258 257 257 256 255 254 253 252 251 250 250 250 250 250 250 250 250 250 251 252 252 253 253 254 255 256
275 274 273 271 269 267 265 263 263 263 262 261 261 260 260 259 259 258 258 257 256 255 254 253 252 250 249 249 250 249 249 250 250 250 251 251 252 252 253 253 254 255 256
277 275 274 272 271 268 266 263 262 262 262 261 260 259 259 258 258 257 257 257 256 255 254 253 252 249 249 249 248 248 248 249 249 250 251 251 251 252 253 254 255 255 256
278 276 275 273 271 269 267 265 263 262 262 262 261 259 259 259 258 257 256 256 256 256 255 253 251 249 248 247 247 247 247 248 249 250 250 251 252 253 254 254 254 255 256
278 276 276 275 273 271 269 268 265 263 262 262 262 260 259 258 258 257 256 256 255 255 254 253 251 249 248 247 247 247 247 249 249 250 251 251 252 253 255 255 255 255 256
279 277 276 276 275 274 272 270 268 265 264 263 262 260 259 257 257 255 255 255 255 254 253 252 251 250 249 248 247 247 247 248 249 250 251 252 253 254 255 256 256 256 257
279 278 277 276 276 275 273 272 270 268 266 264 263 261 259 257 256 254 254 254 254 253 252 251 252 251 251 250 249 248 248 248 248 249 251 252 253 254 255 256 256 256 256
279 279 278 277 276 274 273 272 272 269 267 265 264 261 258 257 255 254 253 252 253 252 251 252 252 251 251 251 251 249 248 249 248 249 251 252 253 254 255 256 256 256 257
279 279 278 278 276 274 273 272 272 270 267 265 263 261 258 256 254 253 252 252 251 251 252 251 251 250 250 249 250 250 250 249 249 249 251 252 252 253 255 256 257 258 258
280 279 278 277 277 275 273 272 272 270 268 265 262 260 259 257 255 253 252 252 251 250 250 250 250 249 248 249 251 251 250 248 248 249 250 251 252 253 255 256 257 258 259
281 279 278 276 275 274 272 271 271 270 269 265 262 259 258 257 256 254 254 253 252 252 250 249 250 251 251 250 249 249 250 250 250 250 251 252 253 254 255 256 256 257 258
284 280 279 278 276 275 273 271 269 267 266 264 260 258 256 255 256 255 253 252 253 251 251 251 251 252 253 252 250 251 252 252 251 250 251 252 252 253 254 256 256 257 258
286 283 280 279 277 276 274 271 268 265 263 261 260 258 255 255 254 253 253 252 253 254 253 252 253 253 253 253 254 253 254 254 252 251 251 252 253 254 255 256 257 258 259
288 285 281 279 279 277 274 270 266 263 262 262 260 258 257 256 254 253 251 252 253 253 254 254 253 253 253 252 253 254 254 254 254 252 252 254 254 255 255 256 257 258 259
289 286 283 281 279 278 276 272 267 263 261 260 258 256 257 257 256 253 250 252 252 251 252 253 253 253 252 252 252 254 254 254 254 252 254 254 254 254 255 256 258 260 261
291 287 284 282 280 278 276 273 269 265 263 260 257 255 255 255 255 253 251 251 250 250 251 252 253 253 253 253 253 254 255 255 254 253 254 255 255 255 256 258 259 260 260
292 289 286 283 280 277 274 272 269 266 264 262 259 256 254 253 253 252 251 252 252 251 251 252 252 253 254 255 255 254 254 254 253 255 255 255 255 256 257 258 259 260 261
296 292 289 285 282 278 275 273 270 266 264 261 259 257 255 254 253 251 251 251 252 253 252 253 253 253 253 253 253 253 254 253 253 254 255 255 255 256 258 259 260 261 262
298 295 292 288 283 280 277 275 272 268 265 262 259 258 257 256 253 252 251 251 251 252 252 253 254 253 253 252 252 253 254 253 255 256 256 256 257 258 259 259 260 261 262
298 296 294 290 285 282 279 276 273 268 265 262 259 257 255 254 252 251 250 250 251 251 252 253 254 255 254 252 250 251 252 254 256 257 258 259 259 260 260 260 263 264 265
299 297 294 291 287 284 280 277 274 270 266 264 261 258 254 252 250 248 248 249 251 251 252 254 255 255 255 253 251 251 253 256 258 260 262 262 261 262 263 263 264 265 267
301 298 296 292 289 285 281 278 276 273 269 266 263 258 253 250 249 248 248 249 250 250 250 253 255 255 254 253 252 252 254 257 259 261 263 264 264 265 265 265 265 266 267
302 300 296 293 291 288 284 280 277 274 271 268 265 261 256 252 251 250 250 250 250 250 250 250 252 253 253 253 253 254 256 258 259 260 261 264 265 266 266 266 267 267 268